Tracking 17884 objects as of 4-December-2016
HD Live streaming from Space Station
objects crossing your sky now

SJ-7

Track SJ-7 now!
10-day predictions
SJ-7 is classified as:


NORAD ID: 28737
Int'l Code: 2005-024A
Perigee: 567.5 km
Apogee: 610.1 km
Inclination: 97.7 °
Period: 96.3 minutes
Semi major axis: 6959 km
RCS: 3.0015 m2 (large)
Launch date: July 5, 2005
Source: People's Republic of China (PRC)
Launch site: Jiuquan Satellite Launch Center, China (JSC)
Your satellite tracking list
Your tracking list is empty





NASA's NSSDC Master Catalog

Two Line Element Set (TLE):
1 28737U 05024A   16338.98340813  .00000836  00000-0  80604-4 0  9994
2 28737  97.6586 344.3722 0030623 243.5540 116.2575 14.95217507625788
Source of the keplerian elements: AFSPC